Regional Weather Roundup
Issued by NWS

Home | Current Version | Previous Version | Text Only | Print | Product List | Glossary On
Versions: 1 2 3 4 5 6 7 8 9 10 11 12 13 14 15 16 17 18 19 20 21 22 23 24 25 26 27 28 29 30 31 32 33 34 35 36 37 38 39 40 41 42 43 44 45 46 47 48 49 50
000
ASUS45 KSLC 230610
RWRUT

UTAH REGIONAL WEATHER ROUNDUP
NATIONAL WEATHER SERVICE SALT LAKE CITY UT
1200 AM MDT SAT MAY 23 2015

UTZ001>011-023>025-230700-

NORTHERN UTAH

CITY           SKY/WX    TMP DP  RH WIND       PRES   REMARKS
BRIGHAM CITY   CLOUDY    53  47  81 NE13      29.93R
HILL AFB       CLOUDY    52  42  68 E9        29.91S
LOGAN          CLOUDY    51  46  83 S6        29.92S
OGDEN          CLOUDY    54  43  66 S5        29.90S
PROVO AIRPORT  MOCLDY    52  43  71 SE3       29.93R
SALT LAKE CITY CLOUDY    55  44  66 S6        29.89S
VERNAL         LGT RAIN  50  43  77 N6        30.00R
WENDOVER       CLOUDY    55  46  71 S5        29.89F
HEBER CITY     MOCLDY    41  39  93 CALM      29.95S
WEST JORDAN    CLOUDY    52  43  71 SW5       29.92S

$$

UTZ012>022-026-027-230700-

SOUTHERN/CENTRAL UTAH

CITY           SKY/WX    TMP DP  RH WIND       PRES   REMARKS
BLANDING       CLEAR     49  30  47 SW12G18   30.07R
BRYCE CANYON   MOCLDY    37  33  85 W7        30.00F WCI  32
CEDAR CITY     CLOUDY    45  39  79 SE6       29.97S
DELTA          PTCLDY    44  39  82 SE3       29.95S
HANKSVILLE     PTCLDY    54  36  50 NW7       29.93S
MILFORD        MOCLDY    45  40  82 SW9       29.95S
MOAB/CYNLANDS  MOCLDY    55  43  63 E12       29.92R
PRICE          CLOUDY    51  37  58 E8        29.97R
ST GEORGE      CLOUDY    57  39  51 SE9       29.96F
KANAB          MOCLDY    45  39  81 SW6       30.04S

$$

REGIONAL REPORTS     COLORADO/ARIZONA

CITY           SKY/WX    TMP DP  RH WIND       PRES   REMARKS
CRAIG, CO      CLOUDY    45  38  76 S5        30.02F
GRAND JUNCTION MOCLDY    50  46  86 S6        29.96F
RIFLE          CLOUDY    49  43  80 W5        30.02S
MONTROSE       CLOUDY    53  36  52 SE13      30.00S
CORTEZ         MOCLDY    48  38  68 S5        30.02R
PAGE, AZ       CLOUDY    53  36  52 N5        29.96S
GRAND CANYON   PTCLDY    31  30  96 CALM      30.04F
KINGMAN        PTCLDY    50  40  68 SE10      29.97F
FLAGSTAFF      MOCLDY    39  33  79 W3        30.05S

$$

REGIONAL REPORTS    NEVADA/IDAHO/WYOMING

CITY           SKY/WX    TMP DP  RH WIND       PRES   REMARKS
LAS VEGAS, NV  PTCLDY    64  40  41 S12       29.86S
ELY            CLOUDY    44  41  89 CALM      29.99F
ELKO           CLOUDY    49  43  80 SW8       29.96S
POCATELLO, ID  CLOUDY    55  49  80 S7        29.90F
BURLEY         PTCLDY    51  49  92 CALM      29.88S
EVANSTON, WY   CLOUDY    39  37  92 SE6       30.00R WCI  35
ROCK SPRINGS   CLOUDY    42  38  85 SW7       30.01R
KEMMERER       CLOUDY    41  37  87 CALM      30.00S

$$



USA.gov is the U.S. government's official web portal to all federal, state and local government web resources and services.